Powrót do katalogu

STARLINK-2358

AktywnyŁącznośćVLEO
NORAD 47898·PAYLOAD·🇺🇸 United States

Wystrzelony Mar 14, 2021 z Cape Canaveral Space Force Station

Loading…

Następne Przeloty (najbliższe 24 godziny)

TLE

ŚwieżeSource: CelesTrak SupGP

Epoka: Sep 14, 2026, 21:06 UTC

1 47898C 21021AQ  26257.87965278 -.00149120  00000+0 -47940-2 0  2577
2 47898  53.1572 107.6406 0001290  81.4858 336.6431 15.31785071    16

Śledź STARLINK-2358 w czasie rzeczywistym z AllMySat

Download on the App Store